Weather History for Minneapolis Flying Cloud, MN

Change the Weather History Date:

Friday, October 19, 2012

  Actual Average Record
Temperature  
Mean Temperature 48 °F -  
Max Temperature 54 °F 55 °F 86 °F (2000)
Min Temperature 41 °F 37 °F 28 °F (2002)
Degree Days  
Heating Degree Days 17    
Moisture  
Dew Point 45 °F    
Average Humidity 86    
Maximum Humidity 94    
Minimum Humidity 66    
Precipitation  
Precipitation 0.09 in - - ()
Sea Level Pressure  
Sea Level Pressure 29.57 in    
Wind  
Wind Speed 4 mph (NNW)    
Max Wind Speed 14 mph    
Max Gust Speed 21 mph    
Visibility 7 miles    
Events Rain    
Averages and records for this station are not official NWS values.
T = Trace of Precipitation, MM = Missing Value Source: NWS Daily Summary

Daily Weather History Graph

Daily Weather History Graph

Search for Another Location

Airport:

Trip Planner

Search our weather history database for the weather conditions in past years. The results will help you decide how hot, cold, wet, or windy it might be!

Date:

Astronomy

Oct. 19, 2012 Rise Set
Actual Time 7:35 AM CDT 6:21 PM CDT
Civil Twilight 7:05 AM CDT 6:51 PM CDT
Nautical Twilight 6:31 AM CDT 7:25 PM CDT
Astronomical Twilight 5:57 AM CDT 7:58 PM CDT
Moon 12:27 PM CDT (10/19) 9:51 PM CDT (10/19)
Length of Visible Light 11h 45m
Length of Day
10h 46m
Waxing Crescent, 24% of the Moon is Illuminated
Oct 19
Waxing Crescent
Oct 21
First Quarter
Oct 29
Full
Nov 6
Last Quarter
Nov 13
New

Hourly Weather History & Observations

Time (CDT) Temp. Windchill Dew Point Humidity Pressure Visibility Wind Dir Wind Speed Gust Speed Precip Events Conditions
12:53 AM 46.0 °F - 43.0 °F 89% 29.41 in 10.0 mi Calm Calm - N/A   Mostly Cloudy
1:53 AM 46.0 °F - 43.0 °F 89% 29.43 in 9.0 mi Calm Calm - N/A   Mostly Cloudy
2:53 AM 46.0 °F 43.9 °F 43.0 °F 89% 29.45 in 9.0 mi NNW 4.6 mph - N/A   Overcast
3:53 AM 46.9 °F - 44.1 °F 90% 29.47 in 10.0 mi North 3.5 mph - N/A   Overcast
4:53 AM 46.9 °F - 45.0 °F 93% 29.48 in 9.0 mi North 3.5 mph - N/A   Overcast
5:50 AM 48.2 °F - 44.6 °F 87% 29.49 in 9.0 mi Calm Calm - N/A   Overcast
5:53 AM 48.0 °F - 45.0 °F 89% 29.50 in 9.0 mi Calm Calm - N/A   Overcast
6:01 AM 48.2 °F - 44.6 °F 87% 29.49 in 4.0 mi NW 3.5 mph - 0.00 in Rain Light Rain
6:10 AM 48.2 °F - 44.6 °F 87% 29.50 in 4.0 mi Calm Calm - 0.00 in Rain Light Rain
6:20 AM 48.2 °F - 44.6 °F 87% 29.50 in 2.0 mi WNW 3.5 mph - 0.02 in Rain Light Rain
6:41 AM 48.2 °F - 46.4 °F 93% 29.50 in 4.0 mi NW 4.6 mph - 0.04 in Rain Light Rain
6:53 AM 48.0 °F - 46.0 °F 93% 29.52 in 5.0 mi WNW 4.6 mph - 0.04 in Rain Light Rain
7:13 AM 48.2 °F - 46.4 °F 93% 29.51 in 5.0 mi NNW 5.8 mph - 0.01 in Rain Light Rain
7:53 AM 48.0 °F - 46.0 °F 93% 29.53 in 9.0 mi NW 5.8 mph - 0.02 in   Overcast
8:53 AM 48.9 °F - 46.0 °F 90% 29.54 in 10.0 mi North 4.6 mph - N/A   Overcast
9:12 AM 48.2 °F - 46.4 °F 93% 29.53 in 1.8 mi North 4.6 mph - N/A   Overcast
9:21 AM 48.2 °F - 46.4 °F 93% 29.54 in 2.0 mi North 5.8 mph - N/A   Overcast
9:33 AM 48.2 °F - 46.4 °F 93% 29.54 in 2.5 mi North 4.6 mph - 0.00 in   Overcast
9:53 AM 48.9 °F - 46.9 °F 93% 29.56 in 2.0 mi NNW 3.5 mph - 0.01 in   Overcast
10:12 AM 48.2 °F - 46.4 °F 93% 29.55 in 2.5 mi NNW 5.8 mph - 0.00 in Rain Light Rain
10:22 AM 48.2 °F - 46.4 °F 93% 29.56 in 3.0 mi NNW 4.6 mph - 0.00 in Rain Light Rain
10:33 AM 48.2 °F - 46.4 °F 93% 29.56 in 2.0 mi NW 5.8 mph - 0.00 in Rain Light Rain
10:45 AM 48.2 °F - 46.4 °F 93% 29.56 in 4.0 mi NW 5.8 mph - 0.01 in Rain Light Rain
10:53 AM 48.9 °F - 46.9 °F 93% 29.57 in 7.0 mi NNW 5.8 mph - 0.01 in Rain Light Rain
11:22 AM 50.0 °F - 46.4 °F 87% 29.57 in 2.5 mi North 8.1 mph - 0.00 in Rain Light Rain
11:32 AM 50.0 °F - 48.2 °F 94% 29.57 in 2.5 mi NNW 4.6 mph - 0.01 in Rain Light Rain
11:41 AM 50.0 °F - 48.2 °F 94% 29.58 in 4.0 mi NNW 8.1 mph - 0.01 in Rain Light Rain
11:49 AM 50.0 °F - 46.4 °F 87% 29.58 in 5.0 mi NNW 9.2 mph - 0.01 in   Overcast
11:53 AM 51.1 °F - 48.0 °F 89% 29.59 in 8.0 mi North 8.1 mph - 0.01 in   Overcast
12:10 PM 51.8 °F - 48.2 °F 88% 29.58 in 10.0 mi NNW 10.4 mph - N/A   Overcast
12:23 PM 51.8 °F - 48.2 °F 88% 29.58 in 10.0 mi NNW 9.2 mph - N/A   Overcast
12:49 PM 51.8 °F - 46.4 °F 82% 29.58 in 10.0 mi NNW 12.7 mph - N/A   Overcast
12:53 PM 52.0 °F - 46.9 °F 83% 29.59 in 10.0 mi NNW 13.8 mph - N/A   Overcast
1:53 PM 52.0 °F - 45.0 °F 77% 29.61 in 10.0 mi NE 11.5 mph - 0.00 in   Mostly Cloudy
2:02 PM 51.8 °F - 44.6 °F 76% 29.61 in 10.0 mi NE 9.2 mph 20.7 mph N/A   Mostly Cloudy
2:23 PM 51.8 °F - 44.6 °F 76% 29.61 in 10.0 mi NE 6.9 mph - N/A   Mostly Cloudy
2:48 PM 53.6 °F - 44.6 °F 72% 29.61 in 10.0 mi NE 11.5 mph - N/A   Overcast
2:53 PM 52.0 °F - 43.0 °F 71% 29.62 in 10.0 mi NE 6.9 mph - N/A   Overcast
4:53 PM 52.0 °F - 41.0 °F 66% 29.65 in 10.0 mi NE 5.8 mph - N/A   Overcast
5:53 PM 51.1 °F - 39.9 °F 66% 29.67 in 10.0 mi NNE 4.6 mph - N/A   Overcast
6:53 PM 48.9 °F - 39.9 °F 71% 29.69 in 10.0 mi Calm Calm - N/A   Scattered Clouds
7:53 PM 46.9 °F - 39.9 °F 77% 29.72 in 10.0 mi WNW 3.5 mph - N/A   Overcast
8:53 PM 48.0 °F - 41.0 °F 77% 29.72 in 10.0 mi North 3.5 mph - N/A   Overcast
9:53 PM 44.1 °F 41.5 °F 37.9 °F 79% 29.73 in 10.0 mi NE 4.6 mph - N/A   Clear
10:53 PM 43.0 °F - 39.0 °F 86% 29.73 in 10.0 mi Calm Calm - N/A   Clear
11:53 PM 41.0 °F - 37.9 °F 89% 29.74 in 10.0 mi Calm Calm - N/A   Partly Cloudy